^^
Station Historical Data
 
Daily Summary for January 20, 2022 Units:  English    Metric   Both
Daily Weekly Monthly Yearly
  Current: High: Low: Average:
Temperature: 16.1 °F 16.8 °F 14.1 °F 15.2 °F
Dew Point: 7.4 °F 8.4 °F 5.8 °F 7.2 °F
Humidity: 68% 75% 66% 70%
Wind Speed: 5mph 7mph 3mph 5mph
Wind Gust: 8mph 14mph - -
WindNNW - - WSW
Pressure: 30.52 in 30.53 in 30.26 in -
Precipitation: 0.00 in      
 
 
Tabular Data for January 20, 2022
Time Temperature Dew Point Pressure Wind Wind Speed Wind Gust Humidity Rainfall Rate (Hourly) solar
00:00 16.8 °F 8.4 °F 30.26 in NNW 7 mph 7 mph 69% 0.00 in 0 W/m2
00:05 16.7 °F 8 °F 30.26 in NNW 7 mph 7 mph 68% 0.00 in 0 W/m2
00:10 16.7 °F 8.3 °F 30.26 in NW 6 mph 6 mph 69% 0.00 in 0 W/m2
00:15 16.6 °F 8.2 °F 30.26 in NW 6 mph 6 mph 69% 0.00 in 0 W/m2
00:20 16.5 °F 8.1 °F 30.26 in WNW 6 mph 7 mph 69% 0.00 in 0 W/m2
00:25 16.4 °F 7.7 °F 30.26 in NNW 6 mph 7 mph 68% 0.00 in 0 W/m2
00:30 16.2 °F 7.5 °F 30.26 in NNW 6 mph 6 mph 68% 0.00 in 0 W/m2
00:35 16 °F 7.3 °F 30.27 in ENE 6 mph 6 mph 68% 0.00 in 0 W/m2
00:40 16 °F 7.6 °F 30.27 in NW 6 mph 6 mph 69% 0.00 in 0 W/m2
00:45 16 °F 7.9 °F 30.27 in NW 5 mph 7 mph 70% 0.00 in 0 W/m2
00:50 16 °F 7.6 °F 30.27 in NW 7 mph 7 mph 69% 0.00 in 0 W/m2
00:55 16 °F 7.9 °F 30.27 in NNE 7 mph 7 mph 70% 0.00 in 0 W/m2
01:00 16 °F 8.3 °F 30.27 in NNW 5 mph 8 mph 71% 0.00 in 0 W/m2
01:05 15.9 °F 7.8 °F 30.28 in NW 5 mph 8 mph 70% 0.00 in 0 W/m2
01:10 15.8 °F 7.4 °F 30.28 in NNW 6 mph 6 mph 69% 0.00 in 0 W/m2
01:15 15.6 °F 7.2 °F 30.28 in NW 5 mph 11 mph 69% 0.00 in 0 W/m2
01:20 15.5 °F 7.1 °F 30.28 in NNW 5 mph 5 mph 69% 0.00 in 0 W/m2
01:25 15.4 °F 7 °F 30.28 in NW 5 mph 5 mph 69% 0.00 in 0 W/m2
01:30 15.2 °F 6.8 °F 30.28 in North 6 mph 8 mph 69% 0.00 in 0 W/m2
01:35 15.2 °F 6.8 °F 30.29 in NNW 6 mph 10 mph 69% 0.00 in 0 W/m2
01:40 15.2 °F 6.8 °F 30.29 in NW 6 mph 6 mph 69% 0.00 in 0 W/m2
01:45 15.1 °F 7.1 °F 30.29 in North 6 mph 13 mph 70% 0.00 in 0 W/m2
01:50 15.1 °F 7.1 °F 30.30 in NNE 6 mph 6 mph 70% 0.00 in 0 W/m2
01:55 15.1 °F 7.1 °F 30.30 in NW 6 mph 6 mph 70% 0.00 in 0 W/m2
02:00 15.2 °F 7.2 °F 30.30 in SSE 5 mph 5 mph 70% 0.00 in 0 W/m2
02:05 15.1 °F 7.1 °F 30.30 in NW 4 mph 5 mph 70% 0.00 in 0 W/m2
02:10 15.1 °F 7.1 °F 30.31 in NW 5 mph 5 mph 70% 0.00 in 0 W/m2
02:15 15.2 °F 7.2 °F 30.31 in NW 5 mph 5 mph 70% 0.00 in 0 W/m2
02:20 15.2 °F 7.2 °F 30.31 in NW 5 mph 6 mph 70% 0.00 in 0 W/m2
02:25 15.3 °F 7.3 °F 30.32 in North 6 mph 8 mph 70% 0.00 in 0 W/m2
02:30 15.3 °F 7.3 °F 30.32 in NW 5 mph 5 mph 70% 0.00 in 0 W/m2
02:35 15.3 °F 7.3 °F 30.32 in NW 6 mph 6 mph 70% 0.00 in 0 W/m2
02:40 15.4 °F 7.4 °F 30.33 in NW 5 mph 5 mph 70% 0.00 in 0 W/m2
02:45 15.4 °F 7.4 °F 30.33 in NW 4 mph 5 mph 70% 0.00 in 0 W/m2
02:50 15.4 °F 7.4 °F 30.33 in WNW 4 mph 4 mph 70% 0.00 in 0 W/m2
02:55 15.3 °F 7.3 °F 30.33 in North 5 mph 5 mph 70% 0.00 in 0 W/m2
03:00 15.4 °F 7.4 °F 30.33 in WNW 6 mph 6 mph 70% 0.00 in 0 W/m2
03:05 15.4 °F 7.4 °F 30.33 in NNW 6 mph 6 mph 70% 0.00 in 0 W/m2
03:15 15.5 °F 7.8 °F 30.34 in NW 5 mph 5 mph 71% 0.00 in 0 W/m2
03:20 15.5 °F 7.8 °F 30.34 in NNW 4 mph 5 mph 71% 0.00 in 0 W/m2
03:25 15.6 °F 7.9 °F 30.34 in North 4 mph 6 mph 71% 0.00 in 0 W/m2
03:30 15.6 °F 7.9 °F 30.34 in North 4 mph 6 mph 71% 0.00 in 0 W/m2
03:35 15.6 °F 7.9 °F 30.34 in NNW 3 mph 3 mph 71% 0.00 in 0 W/m2
03:40 15.6 °F 7.9 °F 30.34 in NNW 3 mph 3 mph 71% 0.00 in 0 W/m2
03:45 15.5 °F 7.8 °F 30.34 in North 3 mph 5 mph 71% 0.00 in 0 W/m2
03:50 15.4 °F 7.7 °F 30.34 in NNW 3 mph 5 mph 71% 0.00 in 0 W/m2
03:55 15.4 °F 7.7 °F 30.34 in NW 4 mph 4 mph 71% 0.00 in 0 W/m2
04:00 15.4 °F 7.4 °F 30.34 in NW 4 mph 9 mph 70% 0.00 in 0 W/m2
04:05 15.5 °F 7.1 °F 30.34 in NW 5 mph 9 mph 69% 0.00 in 0 W/m2
04:10 15.5 °F 7.5 °F 30.35 in NNW 4 mph 9 mph 70% 0.00 in 0 W/m2
04:15 15.6 °F 6.9 °F 30.34 in NNW 5 mph 9 mph 68% 0.00 in 0 W/m2
04:20 15.6 °F 7.2 °F 30.34 in NNW 5 mph 5 mph 69% 0.00 in 0 W/m2
04:25 15.6 °F 7.2 °F 30.35 in NW 4 mph 5 mph 69% 0.00 in 0 W/m2
04:30 15.7 °F 7.3 °F 30.35 in NW 5 mph 5 mph 69% 0.00 in 0 W/m2
04:35 15.7 °F 7.3 °F 30.35 in NW 6 mph 8 mph 69% 0.00 in 0 W/m2
04:40 15.7 °F 7 °F 30.35 in NW 7 mph 7 mph 68% 0.00 in 0 W/m2
04:45 15.7 °F 7 °F 30.36 in NW 6 mph 10 mph 68% 0.00 in 0 W/m2
04:50 15.7 °F 7 °F 30.36 in NW 5 mph 5 mph 68% 0.00 in 0 W/m2
04:55 15.6 °F 6.9 °F 30.36 in NW 6 mph 6 mph 68% 0.00 in 0 W/m2
05:00 15.7 °F 7 °F 30.36 in NNW 6 mph 6 mph 68% 0.00 in 0 W/m2
05:05 15.6 °F 6.9 °F 30.36 in NW 5 mph 6 mph 68% 0.00 in 0 W/m2
05:10 15.6 °F 6.9 °F 30.36 in North 5 mph 7 mph 68% 0.00 in 0 W/m2
05:15 15.6 °F 6.9 °F 30.36 in NW 5 mph 7 mph 68% 0.00 in 0 W/m2
05:20 15.5 °F 6.8 °F 30.36 in NNW 5 mph 5 mph 68% 0.00 in 0 W/m2
05:25 15.5 °F 6.8 °F 30.37 in WNW 5 mph 5 mph 68% 0.00 in 0 W/m2
05:30 15.4 °F 6.7 °F 30.37 in North 5 mph 6 mph 68% 0.00 in 0 W/m2
05:35 15.3 °F 6.6 °F 30.37 in NW 5 mph 6 mph 68% 0.00 in 0 W/m2
05:40 15.3 °F 6.6 °F 30.37 in North 4 mph 4 mph 68% 0.00 in 0 W/m2
05:45 15.2 °F 6.8 °F 30.38 in NNW 4 mph 8 mph 69% 0.00 in 0 W/m2
05:50 15.2 °F 6.8 °F 30.38 in NW 4 mph 7 mph 69% 0.00 in 0 W/m2
05:55 15 °F 6.7 °F 30.38 in NW 4 mph 7 mph 69% 0.00 in 0 W/m2
06:00 15 °F 6.7 °F 30.38 in WNW 4 mph 4 mph 69% 0.00 in 0 W/m2
06:05 15 °F 6.7 °F 30.38 in North 5 mph 5 mph 69% 0.00 in 0 W/m2
06:10 15 °F 7 °F 30.39 in NW 5 mph 7 mph 70% 0.00 in 0 W/m2
06:15 14.9 °F 6.6 °F 30.39 in NNW 4 mph 7 mph 69% 0.00 in 0 W/m2
06:20 14.8 °F 6.8 °F 30.39 in WNW 5 mph 5 mph 70% 0.00 in 0 W/m2
06:25 14.6 °F 6.6 °F 30.39 in North 4 mph 5 mph 70% 0.00 in 0 W/m2
06:30 14.6 °F 6.9 °F 30.39 in North 4 mph 4 mph 71% 0.00 in 0 W/m2
06:35 14.6 °F 6.9 °F 30.40 in NNE 5 mph 5 mph 71% 0.00 in 0 W/m2
06:40 14.6 °F 6.9 °F 30.40 in NNW 4 mph 4 mph 71% 0.00 in 0 W/m2
06:45 14.6 °F 6.9 °F 30.40 in NNW 4 mph 4 mph 71% 0.00 in 0 W/m2
06:50 14.6 °F 6.6 °F 30.40 in NNW 5 mph 5 mph 70% 0.00 in 0 W/m2
06:55 14.5 °F 6.5 °F 30.41 in NNW 4 mph 5 mph 70% 0.00 in 0 W/m2
07:00 14.4 °F 6.4 °F 30.41 in ENE 4 mph 4 mph 70% 0.00 in 0 W/m2
07:05 14.5 °F 6.2 °F 30.41 in NW 4 mph 6 mph 69% 0.00 in 0 W/m2
07:10 14.4 °F 6.1 °F 30.41 in WNW 5 mph 5 mph 69% 0.00 in 0 W/m2
07:15 14.4 °F 5.8 °F 30.42 in North 5 mph 5 mph 68% 0.00 in 0 W/m2
07:20 14.5 °F 6.2 °F 30.42 in NW 4 mph 4 mph 69% 0.00 in 0 W/m2
07:25 14.5 °F 6.5 °F 30.42 in North 4 mph 10 mph 70% 0.00 in 0 W/m2
07:30 14.6 °F 6.6 °F 30.42 in North 5 mph 5 mph 70% 0.00 in 0 W/m2
07:35 14.6 °F 6.9 °F 30.42 in NNW 5 mph 5 mph 71% 0.00 in 0 W/m2
07:40 14.6 °F 6.9 °F 30.43 in North 5 mph 5 mph 71% 0.00 in 0 W/m2
07:45 14.6 °F 6.6 °F 30.43 in North 5 mph 5 mph 70% 0.00 in 0 W/m2
07:50 14.6 °F 6.6 °F 30.43 in NNW 4 mph 8 mph 70% 0.00 in 0 W/m2
07:55 14.6 °F 6.6 °F 30.43 in NNE 4 mph 8 mph 70% 0.00 in 0 W/m2
08:00 14.5 °F 6.5 °F 30.43 in NNW 4 mph 6 mph 70% 0.00 in 5 W/m2
08:05 14.4 °F 6.4 °F 30.43 in NE 4 mph 6 mph 70% 0.00 in 7 W/m2
08:10 14.4 °F 6.7 °F 30.44 in North 4 mph 4 mph 71% 0.00 in 11 W/m2
08:15 14.4 °F 6.7 °F 30.44 in NNW 5 mph 5 mph 71% 0.00 in 14 W/m2
08:20 14.4 °F 7.3 °F 30.44 in North 6 mph 6 mph 73% 0.00 in 23 W/m2
08:25 14.6 °F 7.8 °F 30.44 in NNW 6 mph 9 mph 74% 0.00 in 21 W/m2
08:30 14.6 °F 7.8 °F 30.44 in North 7 mph 9 mph 74% 0.00 in 30 W/m2
08:35 14.7 °F 7.9 °F 30.45 in NNE 7 mph 10 mph 74% 0.00 in 30 W/m2
08:40 14.6 °F 7.8 °F 30.45 in NNW 7 mph 7 mph 74% 0.00 in 39 W/m2
08:45 14.6 °F 8.1 °F 30.45 in NNW 6 mph 7 mph 75% 0.00 in 40 W/m2
08:55 14.4 °F 7.9 °F 30.46 in North 5 mph 5 mph 75% 0.00 in 51 W/m2
09:00 14.3 °F 7.8 °F 30.46 in NNE 6 mph 6 mph 75% 0.00 in 49 W/m2
09:05 14.2 °F 7.7 °F 30.47 in NNW 5 mph 6 mph 75% 0.00 in 47 W/m2
09:10 14.1 °F 7.6 °F 30.47 in NNE 5 mph 5 mph 75% 0.00 in 70 W/m2
09:15 14.1 °F 7.6 °F 30.47 in North 5 mph 6 mph 75% 0.00 in 76 W/m2
09:25 14.2 °F 7.7 °F 30.47 in North 5 mph 7 mph 75% 0.00 in 144 W/m2
09:30 14.4 °F 7.6 °F 30.47 in North 5 mph 5 mph 74% 0.00 in 111 W/m2
09:35 14.4 °F 7.6 °F 30.48 in North 5 mph 11 mph 74% 0.00 in 141 W/m2
09:40 14.5 °F 7.4 °F 30.48 in North 5 mph 5 mph 73% 0.00 in 172 W/m2
09:45 14.5 °F 7.4 °F 30.48 in NNW 6 mph 6 mph 73% 0.00 in 132 W/m2
09:50 14.6 °F 7.5 °F 30.48 in NNE 5 mph 5 mph 73% 0.00 in 120 W/m2
09:55 14.6 °F 7.2 °F 30.48 in West 4 mph 5 mph 72% 0.00 in 127 W/m2
10:00 14.4 °F 7 °F 30.49 in NNE 5 mph 6 mph 72% 0.00 in 127 W/m2
10:05 14.4 °F 7 °F 30.49 in NNW 5 mph 7 mph 72% 0.00 in 142 W/m2
10:10 14.3 °F 6.6 °F 30.49 in NNW 6 mph 8 mph 71% 0.00 in 162 W/m2
10:20 14.9 °F 7.2 °F 30.50 in South 5 mph 5 mph 71% 0.00 in 158 W/m2
10:25 14.8 °F 7.1 °F 30.50 in NW 5 mph 6 mph 71% 0.00 in 155 W/m2
10:30 14.7 °F 7 °F 30.51 in North 6 mph 14 mph 71% 0.00 in 162 W/m2
10:35 14.7 °F 6.7 °F 30.51 in NNE 6 mph 14 mph 70% 0.00 in 167 W/m2
10:40 14.7 °F 7 °F 30.51 in North 5 mph 7 mph 71% 0.00 in 193 W/m2
10:45 14.8 °F 7.1 °F 30.52 in NNE 5 mph 7 mph 71% 0.00 in 204 W/m2
10:50 14.8 °F 7.4 °F 30.52 in NNW 5 mph 5 mph 72% 0.00 in 188 W/m2
10:55 14.6 °F 6.6 °F 30.52 in NNW 5 mph 5 mph 70% 0.00 in 220 W/m2
11:00 14.7 °F 6.7 °F 30.52 in NNE 5 mph 5 mph 70% 0.00 in 218 W/m2
11:05 15 °F 7.3 °F 30.52 in NE 5 mph 7 mph 71% 0.00 in 243 W/m2
11:10 15.3 °F 7.9 °F 30.52 in NNW 4 mph 4 mph 72% 0.00 in 267 W/m2
11:15 15.3 °F 7.3 °F 30.52 in North 4 mph 6 mph 70% 0.00 in 234 W/m2
11:20 15.4 °F 7.7 °F 30.52 in NNW 4 mph 4 mph 71% 0.00 in 211 W/m2
11:25 15.4 °F 7.4 °F 30.51 in NNW 4 mph 6 mph 70% 0.00 in 232 W/m2
11:30 15.5 °F 7.5 °F 30.51 in North 4 mph 5 mph 70% 0.00 in 251 W/m2
11:35 15.7 °F 7.3 °F 30.52 in North 4 mph 7 mph 69% 0.00 in 290 W/m2
11:40 15.9 °F 7.8 °F 30.52 in North 5 mph 5 mph 70% 0.00 in 297 W/m2
11:45 15.8 °F 7.4 °F 30.52 in NNW 5 mph 9 mph 69% 0.00 in 316 W/m2
11:50 16 °F 7.9 °F 30.53 in NNW 5 mph 5 mph 70% 0.00 in 308 W/m2
11:55 16 °F 7.6 °F 30.53 in North 5 mph 5 mph 69% 0.00 in 323 W/m2
12:00 16.3 °F 6.9 °F 30.53 in NNE 6 mph 7 mph 66% 0.00 in 343 W/m2
12:05 16.2 °F 7.5 °F 30.53 in NNW 5 mph 7 mph 68% 0.00 in 313 W/m2
12:10 16.1 °F 7.4 °F 30.52 in NNW 5 mph 8 mph 68% 0.00 in 262 W/m2
Sand Point, Michigan, USA
Compliments of Weather Underground - 2 mb